1998-067PK

Last updated on Aug. 25, 2020, 12:02 a.m. UTC

1 43598U 98067PK  20237.30871042  .08160231  12416-4  62858-3 0  9999
2 43598  51.6101 275.6733 0002578 315.8688  44.2132 16.39524565116065

Satellite is not in orbit.